Showing default

COSMOS 2507, 40920

Orbit data source: Space-Track

COSMOS 2507, 40920 is a payload satellite owned by VVKO VKS (CIS) in LEO that was launched on Wed, 23 Sep 2015 UTC via an ROKOT launch vehicle from the Plesetsk Missile And Space Complex (PKMTR). Payload-class satellites include a variety of spacecraft equipped with specific instruments for various scientific and technological missions. These include communications satellites like Starlink; space stations such as the ISS; scientific satellites like the Hubble; Earth observation satellites from companies like Planet Labs, Umbra, and HawkEye 360; GPS; miniature CubeSats for education and research; and military/defense satellites.

Loading next visibility...
Identifier
40920, 2015-050A
Orbit
LEO
Country
Flag of CISCIS
Related business
Manufacturer
Resehetnev ISS
Mission
Operational Defense Communications
Bus & Motor
STRELA-3M, Unknown motor
Mass
280 kg wet, 280 kg dry
Launch date (UTC)
2015-09-23 (10 years ago)
Launch vehicle
ROKOT
Launch site
Plesetsk Missile And Space Complex (PKMTR)
Object type
Payload
Rocket body
Debris
Shape & HBR
Cyl + 1 Ant, 3.5 m
Radar Cross Section
1.583 m², Large (>1 m²)

Expand to show TLE details & history
Last TLE update: 4 hours ago

TLE from 4 hours ago
0 COSMOS 2507
1 40920U 15050A   25260.99870580  .00000022  00000-0  89284-4 0  9996
2 40920  82.4876 249.0936 0008437 217.2698 142.7797 12.42914983453048
Epoch: 2025-09-17T23:58Z
TLE epoch observation values (Epoch: 2025-09-17T23:58:08.181Z)
Latitude
-0°
Longitude
-107.6071°
Altitude
1,502.262 km
Speed
7.111 km/s
True Right ascension
16h 36m 22s
True Declination
0° 00' 00"
Sunlit
Object was in daylight at epoch
Visualization orbit readout
Latitude
Unknown
Longitude
Unknown
Altitude
Unknown
Speed
Unknown
Apparent Right ascension
Unknown
Apparent Declination
Unknown
Sunlit
N/A
Visualization observer readout
Local Sidereal Time
21:09:08
Azimuth
Unknown
Elevation
Unknown
Doppler factor
Unknown
Orbital elements
Apogee altitude
1,498.262 km
Perigee altitude
1,484.982 km
Semi-major axis
7,869.759 km
Eccentricity
0.00084
Inclination
82.4876°
RAAN
249.0936°
Arg. of periapsis
217.2698°
True anomaly
142.83813°
Mean anomaly
142.7797°
Eccentric anomaly
142.80892°
Mean motion
3.10886 °/min
Orbital period
115.8 mins
BSTAR
0.000089284
Loading maneuver chart data...
Computing Atmospheric mass density...
Loading historical data...
Loading historical data...
Loading historical data...
Loading historical data...
Loading historical data...
Loading historical data...
Loading historical data...
Other satellites on launch #50 in the year 2015 (2015-09-23 UTC)

Documentation

Showing up to 5 results
|